Wind_Speed
65 64 64 64 64 64 63 63 62 61 61 61 62 62 63 64 65 66 67 68 68 68 68 68 69 69 70 70 70 69 69 69 69 68 68 68 67 67 66 66 67 66 66 66 65 65 64 64 64 64 63 63 62 62 63 63 63 63 63 64 65 67 69 69 68 68 67 66 66 66 65 65 65 65 66 68 69 70 71 72 72 71 71 71 70 70 69 69
64 63 63 63 63 63 63 62 61 60 60 61 61 61 61 62 64 65 65 67 67 68 68 68 68 68 69 70 70 69 69 69 69 69 69 69 68 68 68 68 68 67 67 66 66 66 65 65 65 64 64 63 63 63 62 62 62 63 63 64 66 68 69 68 68 68 67 67 66 66 65 65 65 65 65 66 66 67 68 69 69 69 68 67 67 68 68 68
62 62 62 62 62 62 61 61 60 60 59 60 60 60 60 61 62 63 64 65 66 67 67 67 67 67 68 69 69 69 69 69 69 69 69 70 69 69 68 68 68 68 67 67 67 66 66 66 66 65 65 64 63 63 62 62 62 62 63 64 66 67 68 68 68 68 67 67 67 66 66 65 64 64 64 64 65 65 65 65 65 66 65 64 65 65 66 66
61 60 60 60 60 60 60 60 60 59 58 58 58 59 59 60 61 62 62 63 64 65 66 66 66 67 67 68 68 69 69 69 69 69 70 70 69 69 69 69 68 68 68 67 67 67 67 67 66 66 65 65 64 62 61 61 61 62 63 64 65 67 68 68 68 68 67 67 67 66 66 65 64 63 63 63 63 63 62 62 62 63 62 62 62 63 63 61
59 59 59 60 60 59 59 59 59 58 56 55 55 56 57 57 58 60 61 61 62 63 64 65 65 66 66 67 67 68 68 68 68 69 69 69 69 69 68 69 68 68 68 67 68 68 68 67 67 66 65 64 63 62 61 61 62 63 64 64 66 67 68 68 69 69 68 67 67 66 66 65 64 62 62 62 62 61 60 60 60 59 58 58 59 60 60 56
57 58 58 59 58 57 57 58 57 55 54 52 52 53 53 53 54 56 58 60 61 62 63 64 64 65 65 66 66 67 67 66 67 68 68 68 69 68 68 68 68 68 68 67 67 67 67 67 67 66 65 64 63 62 62 62 63 64 65 66 67 68 69 69 69 69 68 67 66 65 65 65 63 61 61 61 61 60 59 59 58 56 56 56 58 58 57 55
57 57 57 57 56 55 55 55 54 53 52 52 51 51 52 52 52 53 55 57 59 61 62 63 63 64 64 65 66 66 66 66 67 67 67 68 68 68 68 68 68 67 67 67 67 67 67 66 66 65 65 64 64 63 63 63 64 66 67 67 68 69 70 69 69 69 68 67 65 64 65 64 62 61 60 60 60 59 58 57 56 55 54 56 57 57 56 54
56 56 55 55 54 53 52 52 51 51 51 52 52 52 51 52 52 52 53 54 56 58 60 61 62 63 64 65 65 66 65 65 66 67 67 67 68 68 68 68 67 67 66 66 66 66 66 65 65 65 65 65 65 64 64 65 66 68 69 68 69 70 71 70 70 69 68 67 65 64 64 63 61 60 60 59 59 58 57 55 54 53 54 55 56 55 54 53
55 55 54 53 52 52 51 50 50 50 50 51 52 53 52 52 52 52 52 52 53 54 56 58 60 61 62 63 64 64 64 65 65 66 66 67 67 68 67 67 66 66 65 65 65 65 65 65 65 66 66 66 66 66 66 67 68 70 70 70 70 71 71 70 70 69 68 67 65 64 64 61 59 58 59 59 58 56 54 53 52 53 54 55 54 54 53 52
55 54 52 52 51 51 50 49 49 50 50 50 51 52 52 52 52 52 51 51 52 53 54 55 57 58 59 61 62 62 62 63 64 64 65 66 66 66 66 66 65 65 64 64 65 65 65 66 66 66 67 67 67 67 67 69 70 71 72 71 71 70 70 69 68 67 66 65 64 63 62 59 57 57 58 58 56 55 53 52 52 53 54 55 54 54 54 52
54 52 51 50 49 50 50 50 49 49 49 50 50 51 51 52 52 52 52 52 53 53 54 55 56 57 58 59 59 60 61 62 62 63 63 64 65 64 64 64 64 64 64 64 65 65 66 66 67 67 68 69 69 69 70 71 72 72 72 71 69 67 66 65 65 65 63 63 62 60 60 57 55 56 58 57 55 54 52 51 52 53 55 55 55 56 55 53
53 52 50 49 48 48 50 50 49 48 48 48 49 50 51 51 52 52 52 53 54 54 55 55 56 57 58 59 58 59 60 61 61 62 62 63 63 63 63 64 64 64 64 65 65 66 67 68 69 70 71 71 71 72 72 72 72 71 70 68 66 64 63 62 63 62 60 60 59 57 57 56 55 56 56 56 54 53 51 51 52 54 55 55 56 57 55 54
54 52 49 47 47 47 49 50 51 49 48 48 48 48 49 50 51 51 52 52 53 54 55 56 57 58 59 59 58 59 60 61 61 61 62 62 63 64 64 64 64 65 65 66 67 68 69 70 71 72 73 73 73 73 72 71 70 68 66 64 63 62 61 60 60 60 58 58 56 54 54 55 55 55 55 54 53 52 51 51 53 55 56 57 58 57 56 54
54 52 49 47 45 45 47 49 51 51 50 49 49 48 49 49 50 50 50 51 52 53 54 55 57 57 59 58 57 59 61 61 61 62 62 63 64 64 65 65 66 66 67 68 69 70 71 72 73 74 74 74 73 72 70 69 67 65 63 62 61 60 60 59 58 58 57 55 53 51 51 53 55 54 53 53 53 52 51 52 53 55 58 59 58 57 56 54
54 52 49 46 44 43 44 46 49 50 50 50 50 50 50 50 50 50 50 51 52 53 54 55 56 57 58 57 56 59 61 61 62 62 63 64 65 65 66 66 67 68 69 69 71 72 72 73 73 74 73 72 70 69 67 66 65 63 62 61 60 59 59 57 56 56 55 54 51 49 49 51 54 52 51 51 51 51 51 52 54 57 59 59 58 57 57 55
54 52 50 46 44 42 42 43 45 47 49 49 49 50 50 50 50 51 51 52 53 54 55 56 56 57 57 57 56 58 60 61 62 62 64 65 65 65 66 67 69 69 69 70 70 70 70 70 70 70 69 68 67 66 65 64 63 62 61 60 59 58 58 56 55 54 54 53 51 48 47 49 53 51 49 49 49 50 50 51 54 58 60 59 58 58 58 58
55 53 51 48 45 43 42 41 42 42 44 45 47 48 49 50 51 51 52 52 53 54 55 56 56 56 57 56 56 57 58 60 61 62 62 63 64 64 65 66 67 67 67 67 67 67 66 66 65 65 64 64 64 64 64 63 62 60 59 59 58 57 56 56 54 53 53 53 51 48 46 48 51 50 48 48 47 48 49 51 54 57 59 59 59 60 60 60
56 54 52 49 47 45 43 41 40 39 39 40 41 44 47 49 50 50 51 52 53 54 54 55 55 54 54 54 54 55 55 57 58 59 60 61 61 61 61 62 62 63 62 62 63 63 63 63 63 62 62 62 62 62 62 62 60 58 57 57 57 56 56 55 54 53 53 53 51 49 47 47 49 49 48 47 46 47 49 50 53 56 59 59 59 61 62 60
57 56 54 51 49 48 46 44 42 40 38 37 37 39 42 44 46 47 48 49 50 51 51 51 51 51 51 51 51 51 52 53 54 56 57 58 58 58 58 59 59 59 59 59 60 60 60 61 61 62 63 62 62 62 62 60 58 57 56 56 56 57 57 56 55 54 52 52 51 49 46 45 46 48 48 48 46 47 49 50 52 56 58 59 59 60 61 59
59 57 56 53 51 50 49 48 46 44 42 40 39 40 41 42 43 43 45 46 46 46 46 47 47 48 49 49 49 49 50 51 52 54 55 56 56 56 57 57 58 58 58 58 58 57 57 58 60 62 63 63 63 62 61 60 58 57 56 56 57 57 58 57 56 55 52 50 51 49 46 45 46 47 48 48 47 47 49 50 52 55 57 58 59 59 59 57
60 59 58 56 53 52 51 50 49 48 46 45 44 45 45 44 43 43 43 44 44 44 45 46 46 48 49 48 48 48 49 50 52 54 55 56 56 56 58 59 59 60 59 58 56 56 55 57 61 62 62 62 62 61 60 58 56 55 55 55 56 57 58 56 56 56 52 49 51 49 46 45 45 46 47 47 48 49 50 51 52 55 57 58 58 58 58 56
62 61 60 59 56 54 53 51 50 49 48 46 47 47 47 47 46 45 45 46 46 46 47 46 47 49 50 48 48 48 49 51 53 55 55 56 57 58 60 61 61 62 61 59 58 57 57 58 62 62 61 62 62 60 58 56 55 55 55 55 56 57 56 55 55 55 51 49 50 49 46 45 45 45 46 46 47 50 50 50 53 55 56 57 57 57 56 53
63 63 62 61 59 57 56 54 52 50 48 47 47 48 49 48 47 47 48 50 50 48 48 49 49 51 51 49 49 49 49 52 54 55 55 56 57 58 59 61 62 62 61 60 60 60 59 61 62 61 61 62 61 59 58 57 56 57 56 57 58 58 56 55 55 53 50 49 50 48 45 45 45 44 45 45 47 49 50 50 53 55 55 56 55 54 53 51
64 64 64 63 62 60 59 57 55 53 50 49 49 49 49 49 49 49 50 53 53 50 49 50 51 52 52 51 51 50 49 52 54 55 55 56 57 57 58 60 61 61 61 61 61 60 60 62 61 60 62 62 61 60 60 59 59 59 58 59 60 58 56 55 54 50 48 50 50 46 44 44 44 43 43 44 46 48 50 50 51 53 54 53 52 51 50 51
66 66 66 66 64 63 62 60 58 55 53 52 52 51 50 49 50 51 53 55 55 52 50 51 51 53 52 51 51 50 49 51 55 55 54 56 57 57 58 58 59 60 61 61 59 59 59 60 59 59 60 60 60 60 60 60 60 59 60 60 59 57 54 53 51 49 47 49 47 43 42 43 42 42 43 44 45 47 49 49 50 52 51 49 49 49 50 52
68 68 68 68 67 65 65 63 61 58 56 55 54 53 52 51 51 53 54 57 57 53 51 51 52 52 52 51 51 51 50 52 56 55 54 56 57 56 56 56 57 58 58 57 56 55 57 57 56 56 56 57 57 58 59 58 58 58 59 58 56 55 53 50 49 48 47 46 44 41 41 41 41 41 42 43 44 45 47 47 48 49 48 47 47 47 48 50
71 70 70 69 69 68 67 66 64 61 58 57 57 56 54 53 54 55 55 57 58 55 52 52 52 52 52 52 51 51 52 54 56 55 55 57 56 55 54 54 55 56 55 53 51 52 54 54 52 52 53 54 55 56 57 55 54 56 56 55 53 52 50 48 46 46 45 44 42 40 39 40 40 41 41 41 42 43 44 45 46 47 45 44 45 45 47 49
72 72 71 70 69 68 69 68 66 63 61 59 58 57 56 55 56 57 57 58 57 56 55 54 53 53 53 53 52 53 54 56 57 56 56 57 55 54 53 53 53 52 50 48 48 51 52 50 49 49 49 51 53 54 53 51 52 54 53 51 50 49 48 45 44 44 43 41 41 40 38 38 40 40 39 40 40 41 43 45 44 44 43 43 43 44 45 46
74 73 72 71 70 70 70 69 67 64 63 61 59 58 58 57 57 57 58 58 58 57 56 55 54 54 54 54 54 54 56 57 57 57 56 56 55 53 52 51 50 48 46 46 47 49 48 47 46 46 46 49 51 51 49 50 51 51 49 48 47 46 45 43 42 42 40 39 40 39 36 36 39 40 39 38 39 40 41 43 42 42 41 41 41 42 42 43
75 75 73 72 72 72 71 69 68 66 65 63 61 60 59 58 58 57 59 59 59 58 57 56 56 56 55 55 55 56 57 58 58 57 56 55 55 53 51 50 47 45 44 43 45 46 45 43 43 43 45 48 48 47 47 48 48 47 46 45 44 43 42 40 39 39 37 37 39 37 34 35 38 40 37 37 39 40 40 41 41 41 40 39 39 40 40 40
70 72 74 75 75 73 71 70 69 68 67 65 64 62 61 59 58 58 58 59 59 58 58 58 58 57 57 56 56 57 58 58 58 57 56 55 54 52 49 48 46 44 42 42 45 45 42 41 41 42 45 45 45 44 45 45 45 44 43 42 41 40 38 37 37 36 35 37 39 36 33 34 38 39 36 36 38 39 40 40 40 41 40 38 38 38 38 38
65 66 69 72 75 75 73 71 71 70 69 67 65 64 63 61 60 59 59 59 59 59 60 60 60 59 59 58 58 58 58 58 58 58 56 54 53 52 48 47 45 43 40 42 45 42 38 39 40 41 42 42 42 42 43 44 43 42 40 39 37 36 35 35 34 34 34 37 38 35 32 34 38 38 35 35 37 39 39 40 40 40 39 38 38 38 38 39
63 65 65 66 69 71 72 72 72 71 70 68 65 64 63 62 62 61 60 60 60 61 61 62 62 61 61 60 59 59 58 58 58 58 56 54 52 50 47 46 44 40 39 42 43 38 36 37 38 39 40 40 41 41 42 43 42 39 37 35 34 33 33 33 33 33 33 35 35 33 31 33 37 37 34 34 37 38 39 40 40 40 39 38 39 40 41 41
59 64 66 66 65 66 67 67 68 68 68 66 64 62 61 61 62 62 61 61 62 62 62 63 63 63 63 62 60 58 58 58 59 59 57 54 52 48 46 45 43 40 40 41 40 37 36 37 38 39 40 40 40 41 42 41 39 37 35 33 33 33 33 33 32 32 32 32 33 31 29 31 36 37 34 35 37 38 39 40 40 40 39 39 39 41 41 41
55 60 65 68 66 65 65 64 64 65 65 65 63 61 61 62 62 62 63 63 64 64 64 64 64 64 63 62 60 58 58 58 59 59 58 55 51 46 45 44 43 41 40 39 38 37 37 38 38 39 39 39 39 40 39 38 37 36 34 33 34 34 33 32 31 31 30 31 31 29 28 32 36 36 34 34 36 38 39 40 40 40 39 38 39 40 39 39
53 56 61 66 68 67 65 63 63 63 63 64 63 63 63 64 64 64 65 65 66 66 65 64 64 64 63 61 59 59 59 59 60 60 58 55 50 45 44 44 43 41 39 39 38 36 36 37 38 38 39 38 38 38 37 36 36 35 33 33 34 32 31 30 30 30 30 30 30 29 29 32 35 35 34 35 36 38 39 40 40 39 38 38 38 38 38 38
51 53 55 60 65 68 67 65 63 62 62 62 63 64 64 63 64 65 65 66 66 66 65 65 65 63 61 60 60 60 60 61 61 59 57 53 48 44 43 43 43 41 40 39 38 35 35 37 37 38 38 37 36 36 35 35 35 33 33 33 32 30 29 30 30 29 30 30 30 29 30 33 34 35 35 35 37 38 39 40 39 38 38 38 37 38 39 39
48 49 51 53 58 63 66 67 65 63 62 62 63 63 63 63 64 64 65 65 65 65 64 64 64 63 62 61 62 62 62 61 60 58 54 50 46 44 44 43 42 41 40 39 37 35 35 37 38 38 38 36 35 35 35 34 33 33 33 32 30 29 29 30 29 30 30 30 30 30 31 32 34 35 36 36 37 38 39 39 38 37 37 37 37 38 38 38
45 46 47 48 50 54 58 63 65 65 64 64 64 64 64 64 64 64 65 65 64 64 64 64 64 64 63 62 63 63 63 61 58 55 51 47 45 44 44 43 42 41 39 38 37 36 36 37 38 38 37 35 34 34 34 33 32 33 32 31 30 29 30 30 30 30 30 30 30 31 31 32 34 36 36 36 36 38 38 38 37 36 36 37 37 37 37 37
43 43 44 44 45 47 49 53 56 60 63 64 65 65 65 65 64 64 65 65 65 64 64 64 64 64 64 64 64 63 62 60 57 53 48 46 44 44 44 43 42 41 39 37 36 36 37 37 38 38 37 35 33 33 32 31 31 31 31 30 30 30 30 30 30 30 30 30 31 32 32 32 34 35 36 36 35 37 38 36 35 35 35 36 36 37 37 38
42 42 43 44 45 45 46 47 49 52 55 58 61 62 63 63 63 63 64 65 65 65 65 65 66 65 65 64 63 62 61 60 56 50 46 44 43 43 44 43 42 41 38 36 36 37 37 39 40 39 37 36 34 32 31 30 30 30 30 30 29 29 30 30 30 30 31 31 31 32 34 34 34 35 36 36 36 35 35 34 33 34 35 35 36 36 36 36
40 41 42 44 45 45 46 47 49 50 52 54 57 59 60 61 62 63 63 64 65 65 65 65 64 64 63 62 62 61 61 59 53 48 45 44 43 43 44 43 41 40 37 36 37 38 38 40 42 40 38 37 35 32 31 30 29 30 30 29 29 29 30 31 31 31 31 31 31 32 34 35 35 36 37 37 36 35 33 33 34 34 35 36 35 35 35 35
37 39 41 42 43 44 45 47 48 50 51 53 54 56 57 58 59 59 60 61 61 61 61 61 61 61 62 62 62 61 59 56 51 47 44 43 43 43 43 42 40 38 37 36 37 38 38 40 42 41 38 37 36 34 32 31 29 29 29 30 30 30 31 31 32 31 31 31 31 32 34 36 36 37 37 37 36 35 34 34 35 35 36 37 35 35 36 37
36 38 40 41 41 42 44 45 46 48 49 50 51 52 53 54 55 55 56 57 58 59 60 61 61 62 63 62 61 59 55 52 49 46 43 43 43 43 42 41 40 38 37 36 36 38 40 41 42 42 40 38 37 35 33 32 30 30 30 31 31 32 32 32 31 30 31 31 32 32 34 36 37 37 37 37 36 36 35 36 37 38 38 38 36 37 38 39
37 38 39 40 41 41 42 44 44 46 47 48 49 50 51 52 53 54 55 57 59 60 61 62 62 62 61 59 57 54 50 48 47 44 42 42 43 42 41 40 39 38 37 36 36 38 41 42 44 44 42 39 38 37 35 34 33 32 32 32 33 33 33 33 31 30 31 32 32 33 34 36 37 37 38 38 38 38 37 37 39 39 40 40 40 40 39 39
38 38 39 39 40 41 42 42 43 45 47 48 49 50 52 53 53 54 55 57 59 60 60 60 59 57 55 53 51 49 46 44 43 42 42 42 41 41 40 39 38 38 37 36 36 38 41 43 44 45 44 43 41 39 38 36 35 33 33 33 33 34 34 33 31 30 31 32 32 33 34 36 37 38 39 40 40 39 39 39 40 40 41 41 42 44 42 40
37 37 38 38 39 39 40 41 42 43 45 46 48 49 50 50 51 51 51 52 53 54 53 52 51 49 48 46 44 43 41 41 41 42 42 42 41 40 39 38 39 38 37 37 38 40 41 43 44 45 46 45 43 41 39 37 36 34 34 34 34 34 35 34 32 31 31 32 32 34 35 36 37 38 40 41 41 40 39 40 41 41 42 43 44 46 46 44
34 34 35 35 35 35 35 36 37 38 39 41 42 42 43 44 44 44 44 44 44 45 44 43 42 42 42 42 41 40 39 39 41 41 42 42 41 40 40 40 40 39 40 40 41 43 42 42 43 45 46 44 41 40 40 39 37 36 35 35 35 35 35 35 33 32 31 31 33 34 35 36 37 39 41 41 41 41 40 41 42 43 43 44 45 47 48 47
30 30 30 29 30 30 30 31 31 32 33 34 34 35 36 37 38 38 39 39 39 40 40 40 40 40 41 41 40 40 40 40 41 42 43 42 41 41 42 43 42 43 45 46 45 45 43 41 42 45 45 43 41 40 40 39 38 37 36 36 36 36 36 36 34 32 32 32 33 34 35 37 38 39 41 42 42 42 42 42 43 44 45 44 45 47 49 48
26 25 25 25 25 25 26 27 27 28 28 29 30 32 33 34 35 36 38 38 39 40 40 41 42 42 43 42 41 41 42 42 42 43 44 43 43 43 45 45 44 48 51 49 46 46 44 42 42 44 44 43 41 41 41 41 39 38 37 36 36 36 36 36 35 34 32 33 33 34 35 37 38 39 41 42 43 43 43 44 44 45 46 46 46 48 50 51
22 22 22 22 22 22 23 24 25 26 27 28 30 31 33 34 35 37 38 39 39 39 39 40 41 43 44 44 43 43 42 43 44 45 45 45 44 45 47 47 48 52 52 48 44 44 44 42 42 43 43 43 43 44 43 42 40 39 38 38 38 37 37 37 36 35 34 34 34 34 35 37 39 40 41 42 43 44 44 45 45 46 47 47 47 49 52 53
19 20 20 20 20 21 22 24 25 26 27 29 30 31 32 34 35 36 37 38 38 38 38 38 39 42 43 44 44 44 44 45 45 46 47 46 45 48 51 51 49 51 51 47 43 42 43 42 42 43 44 45 46 46 45 44 43 41 41 41 40 39 38 37 37 37 36 35 35 36 36 38 39 40 41 42 43 44 45 45 46 47 48 48 49 51 53 56
Wind_Direction
260 260 260 261 261 262 262 262 261 260 258 256 254 253 251 250 248 247 246 246 245 246 246 247 247 247 248 248 249 250 251 252 253 254 255 255 256 256 257 258 259 260 261 261 262 262 262 262 262 263 263 263 263 263 264 264 265 265 265 266 266 266 266 266 266 266 266 266 266 266 265 264 263 262 262 261 260 260 259 259 260 260 260 260 261 261 262 262
259 260 260 261 262 262 262 261 261 259 258 255 253 252 251 249 248 247 246 246 246 246 246 247 247 247 248 248 249 250 251 251 252 253 254 254 255 256 257 258 259 259 260 260 261 261 261 262 262 262 263 263 263 264 264 265 265 266 266 266 266 266 266 267 267 266 266 266 266 266 265 264 264 263 262 262 261 260 259 259 259 259 260 260 260 261 261 262
259 259 260 261 262 263 262 262 260 259 257 254 252 250 249 249 248 247 246 246 245 246 246 246 247 247 248 248 249 249 250 251 252 252 253 254 255 255 256 257 258 258 259 259 260 260 260 261 261 262 263 263 264 264 265 265 266 266 267 267 267 267 267 267 267 267 266 266 266 266 266 265 264 264 263 263 262 261 260 259 259 259 259 259 259 260 260 261
259 259 260 261 262 263 263 261 259 257 255 253 250 249 248 248 248 247 246 246 246 246 246 246 247 247 248 248 249 250 250 251 252 252 253 254 254 255 256 256 257 257 258 258 258 259 259 260 261 262 263 264 264 265 265 266 267 267 267 267 268 268 268 268 267 267 267 266 266 266 266 265 264 263 263 262 261 261 260 259 259 258 258 258 258 259 259 261
258 259 260 261 262 263 261 258 256 254 252 250 249 249 250 249 248 248 247 247 247 246 246 247 247 247 248 249 249 250 251 251 252 253 253 254 254 255 255 256 256 256 257 257 258 258 259 260 261 262 263 264 265 265 266 266 267 267 267 268 268 269 269 268 268 268 267 267 267 266 266 264 263 262 261 261 260 260 259 259 258 258 258 257 257 257 257 257
257 259 262 263 263 261 258 254 252 250 248 247 247 249 251 251 250 249 248 247 247 246 246 247 247 248 248 249 249 250 251 251 252 253 253 254 254 254 255 255 256 256 256 257 257 258 259 260 261 263 264 265 266 266 266 266 267 268 268 269 270 270 270 270 269 269 268 268 267 266 265 264 263 261 260 260 259 258 258 258 257 257 257 256 255 255 255 254
257 260 263 263 262 259 255 251 248 247 246 245 245 246 248 250 250 250 249 248 247 247 247 247 247 248 248 249 250 250 251 251 252 253 253 254 254 255 255 255 256 256 257 257 258 258 259 261 262 263 264 265 266 266 266 266 267 268 269 270 271 272 272 271 270 270 269 267 266 265 264 263 262 261 260 259 258 257 257 256 256 256 255 254 254 253 253 252
258 260 261 261 260 257 253 249 246 245 244 244 244 245 246 248 249 250 250 249 248 248 248 248 249 249 249 250 250 251 251 252 253 253 254 254 255 255 256 256 256 256 257 258 259 259 260 262 263 264 264 265 265 266 266 267 268 269 269 270 271 271 271 271 270 270 269 267 266 265 263 262 261 260 259 258 257 256 256 255 254 253 252 252 252 251 251 250
258 258 259 258 257 254 251 248 247 246 245 245 244 245 246 247 248 249 250 250 250 249 249 249 249 250 250 250 251 251 252 252 253 254 254 255 255 256 256 256 256 257 258 259 260 261 261 262 263 263 264 264 265 266 267 268 268 269 270 270 270 270 270 270 269 268 267 267 266 264 263 261 260 259 258 257 256 255 254 253 252 251 250 250 250 249 249 248
256 255 256 256 254 252 249 247 247 246 245 245 245 245 246 246 247 248 249 250 250 251 250 250 250 250 250 251 251 251 252 253 253 253 254 255 255 256 256 257 257 258 259 260 260 261 262 262 263 263 264 265 266 267 268 269 269 269 270 269 269 268 268 268 267 266 265 265 264 263 262 261 259 258 257 256 255 254 253 252 251 249 249 248 248 248 247 246
253 253 254 254 252 250 248 246 245 245 244 245 245 245 246 247 247 247 248 249 249 250 250 251 251 251 252 252 252 253 253 253 253 254 255 256 256 257 257 258 258 259 259 260 261 261 262 263 263 264 265 266 267 268 269 269 269 269 269 268 267 266 265 265 265 264 264 263 263 262 262 260 258 257 256 255 254 253 252 250 249 249 248 247 247 247 246 245
250 251 253 253 251 248 246 245 245 244 243 243 244 244 245 246 247 248 248 249 249 249 250 250 251 252 252 252 253 253 253 254 254 255 255 256 257 258 258 258 259 259 260 261 261 262 263 264 265 266 266 267 268 269 269 268 268 267 267 266 265 264 264 264 265 265 264 263 262 261 261 259 256 255 255 255 253 252 251 250 249 249 248 247 246 246 246 245
248 249 251 251 250 248 245 244 244 244 243 243 243 244 244 245 246 247 248 249 249 249 250 250 251 251 251 252 252 253 254 254 255 255 256 257 257 258 259 259 260 261 262 263 264 264 265 266 266 267 267 268 268 268 268 267 266 266 265 265 265 264 264 264 265 266 265 263 261 260 260 259 256 254 254 254 253 251 250 249 249 249 249 248 247 247 247 246
247 248 250 250 250 248 245 244 243 243 243 243 244 244 245 245 246 246 247 248 249 249 249 250 250 250 251 251 252 254 254 255 256 256 257 258 259 260 261 262 263 263 264 264 265 265 266 266 267 267 267 268 267 267 266 266 265 265 265 265 265 264 264 264 265 266 265 263 262 260 259 259 256 254 252 252 252 251 249 249 249 249 249 248 248 248 248 246
246 246 247 248 248 247 245 244 243 242 243 244 244 245 246 246 246 247 247 248 249 249 249 250 250 251 252 252 252 254 256 256 257 258 259 259 260 261 262 263 264 264 264 265 266 266 266 266 266 267 267 266 266 265 265 265 265 265 265 264 264 264 264 264 265 265 265 264 261 259 258 258 257 254 252 251 250 250 248 248 248 248 248 248 248 248 248 247
245 245 246 246 245 245 244 243 242 242 242 243 244 245 246 246 246 247 247 248 248 249 249 250 251 252 253 254 254 255 257 258 259 259 260 261 262 262 263 263 264 264 265 265 265 266 266 266 266 266 265 265 265 264 264 265 265 265 265 265 265 265 266 265 264 264 264 263 260 258 256 256 257 254 251 249 249 248 246 246 246 247 247 248 247 247 247 246
244 245 245 245 244 243 243 242 242 242 241 242 243 244 244 245 245 246 246 247 248 249 250 251 252 253 255 256 256 256 258 260 260 260 261 262 262 263 263 263 264 265 265 265 265 265 266 265 265 265 265 264 264 264 264 264 264 265 266 266 267 266 266 265 264 263 262 262 260 257 255 254 255 255 252 249 247 246 245 244 244 245 246 246 245 245 245 244
242 244 244 244 244 243 242 242 242 242 242 241 242 243 244 244 244 245 246 246 248 249 250 252 254 255 256 257 257 257 258 259 261 262 262 262 262 263 264 264 264 264 264 264 265 265 266 266 266 266 265 264 264 264 264 264 264 265 266 267 267 267 266 265 263 261 260 261 259 257 254 253 254 255 253 249 246 245 245 244 244 244 245 244 243 243 243 243
240 242 243 243 242 242 243 243 242 241 241 241 242 244 245 245 244 245 246 247 248 250 251 253 254 255 255 256 256 257 258 259 261 263 264 264 264 265 265 265 265 265 265 264 264 264 265 266 267 266 266 265 264 264 264 265 265 266 266 267 267 267 266 264 262 260 259 260 260 258 255 253 253 253 253 250 246 244 243 243 243 244 244 244 243 243 243 242
239 241 242 242 241 241 243 244 243 242 242 242 244 247 248 248 247 247 247 248 249 251 252 253 254 255 256 256 258 259 261 262 263 265 266 267 267 268 268 268 267 267 266 265 265 266 266 266 266 265 265 264 264 264 265 266 266 266 267 267 267 266 265 263 261 259 258 259 260 258 256 254 253 252 251 249 247 243 242 242 242 243 244 244 244 243 243 242
238 239 241 241 240 240 242 243 244 244 244 244 246 248 249 250 250 250 250 250 251 251 252 253 255 257 257 258 260 262 263 265 266 267 267 269 269 270 269 269 269 269 269 268 269 268 268 266 265 264 264 264 264 264 265 266 266 266 266 265 265 265 264 262 261 260 258 258 260 259 257 256 254 252 250 249 247 245 242 241 241 242 242 243 243 243 243 242
237 238 239 241 241 240 241 242 243 244 244 244 246 247 248 249 249 250 251 252 252 252 253 254 256 257 259 260 262 264 266 267 267 268 269 270 270 270 270 270 271 271 271 271 271 269 268 265 264 264 264 264 264 264 265 265 265 265 264 263 264 264 264 263 261 260 258 258 259 259 258 257 255 252 250 248 247 246 244 242 242 242 242 242 242 243 243 243
236 237 238 239 241 241 241 241 242 243 244 245 246 247 247 247 248 249 250 251 251 251 253 255 255 257 260 262 263 264 266 267 268 268 269 269 269 270 271 271 271 272 272 271 270 268 267 265 264 264 263 263 263 264 264 264 263 263 263 263 264 264 264 264 262 260 259 259 260 259 258 258 255 252 250 248 246 246 245 242 242 243 242 243 243 244 244 243
235 236 237 238 240 241 242 242 242 243 243 245 246 248 248 247 247 247 249 250 251 250 252 254 256 258 260 262 263 263 264 267 268 268 268 269 270 270 271 271 272 272 271 269 268 267 266 264 264 263 262 262 262 262 262 262 262 262 263 263 264 264 264 264 264 261 259 260 260 259 258 257 255 253 250 247 245 244 244 242 242 242 242 243 244 244 243 241
234 235 237 238 239 241 242 243 243 243 244 245 246 248 249 248 247 248 249 251 252 251 251 254 257 260 261 262 263 264 264 267 268 268 270 271 271 272 272 272 272 271 269 267 266 265 264 263 262 261 261 261 261 261 261 261 261 261 262 262 263 264 264 265 265 262 259 260 261 259 257 256 254 251 248 245 242 242 242 242 241 242 242 242 241 241 240 239
234 235 236 238 239 240 242 243 243 243 244 246 247 248 249 250 249 250 250 252 253 253 253 255 257 260 262 263 264 266 266 267 269 271 273 273 274 274 274 274 273 270 268 266 265 264 263 262 261 260 261 261 261 261 260 260 260 261 261 262 263 264 264 264 263 260 258 259 260 257 254 252 250 248 246 243 241 241 242 241 241 242 241 240 239 238 238 239
236 236 236 237 238 239 241 242 242 243 244 245 247 248 249 250 251 251 252 253 254 254 255 256 257 260 263 265 267 269 270 270 272 273 275 276 277 278 277 275 271 268 266 265 265 264 262 261 261 260 260 260 260 259 259 259 259 259 260 261 262 262 262 261 260 259 258 258 257 254 250 249 248 246 244 242 240 240 241 240 240 240 239 238 237 236 235 237
237 237 237 237 238 239 241 242 242 242 243 244 246 248 249 249 250 252 253 254 255 255 256 257 259 262 264 267 269 271 273 273 274 275 276 278 280 280 279 275 270 268 267 266 264 261 261 261 260 259 258 257 257 256 257 257 256 257 258 259 260 260 260 259 257 257 257 257 256 252 247 246 246 244 241 240 239 238 239 240 239 239 238 236 235 234 234 236
237 238 238 238 239 239 241 242 243 242 243 244 245 247 249 249 250 252 253 254 255 256 257 258 261 263 266 268 270 272 274 274 274 276 278 281 282 281 279 275 271 269 268 265 262 260 260 259 258 256 255 254 253 254 254 254 255 256 258 258 258 258 258 257 256 256 256 255 254 250 245 244 245 243 239 238 237 236 236 238 239 238 237 235 234 234 235 235
238 238 239 239 240 240 241 242 244 243 244 244 245 246 248 249 250 252 253 254 254 256 257 259 262 264 266 268 270 272 273 273 274 276 279 282 282 281 279 274 270 268 266 262 259 258 256 256 255 254 252 252 253 253 253 254 255 256 256 256 256 256 256 256 256 255 255 254 252 248 243 242 242 241 238 235 236 235 234 235 236 236 235 233 233 234 234 235
240 240 239 240 240 241 241 242 243 244 244 245 246 247 247 248 249 251 252 253 254 255 257 259 261 263 265 267 270 272 273 273 274 277 280 281 282 282 277 271 268 266 262 258 256 255 255 255 254 253 253 253 254 254 254 254 254 254 254 255 255 256 256 256 255 254 252 251 249 245 241 239 240 239 235 233 235 234 233 233 234 234 232 230 230 231 232 233
241 240 240 240 241 241 241 241 242 244 245 246 247 247 247 247 248 249 251 252 253 254 256 259 261 263 265 267 270 271 271 272 275 278 280 281 282 281 274 268 266 263 259 256 255 255 256 256 254 254 254 254 253 253 253 252 252 253 254 255 256 256 256 256 254 252 250 248 247 244 239 237 238 238 234 233 234 234 233 232 233 233 232 229 227 227 227 228
241 240 240 240 241 241 241 242 243 244 245 246 247 247 247 247 247 248 249 251 253 254 257 259 261 263 265 268 270 270 270 272 275 278 280 282 282 278 270 266 263 258 254 254 255 254 253 252 252 252 252 251 251 250 250 250 251 252 253 254 255 254 253 251 249 247 246 245 245 242 238 236 238 237 233 232 233 234 233 232 232 232 231 228 226 225 224 224
242 240 239 239 240 240 241 241 242 243 244 244 245 246 246 246 246 247 249 251 253 255 257 260 262 264 266 268 270 269 269 272 275 278 280 281 280 273 266 263 258 252 250 252 253 252 249 248 247 247 248 248 248 248 248 249 250 250 249 249 249 248 247 246 245 244 243 243 243 240 235 235 238 236 232 231 233 233 233 232 231 231 230 228 226 225 224 223
242 240 238 238 238 239 240 240 241 242 242 242 243 244 244 244 246 248 250 251 254 256 258 260 262 264 266 268 268 267 268 271 275 277 279 280 277 269 263 260 254 250 249 250 251 250 248 246 244 244 246 246 247 248 248 249 249 247 246 245 245 244 244 244 242 242 241 240 240 236 232 234 237 236 231 230 232 233 232 232 231 231 229 228 227 226 225 224
242 241 239 238 238 238 239 240 241 242 243 243 243 243 244 245 247 249 250 252 254 256 258 261 263 265 265 265 265 266 267 271 274 276 278 278 274 266 261 256 251 248 247 247 248 248 248 246 243 242 244 245 246 247 247 246 247 246 244 243 243 242 241 241 240 239 237 236 236 231 228 232 235 235 230 227 229 231 231 231 231 230 229 228 227 225 223 222
242 241 240 239 238 238 239 240 241 242 243 244 244 244 246 247 249 250 252 253 256 258 259 261 262 263 263 263 264 265 268 271 273 274 276 275 269 262 258 252 247 246 245 245 245 245 245 243 240 240 241 242 244 245 244 243 244 243 241 240 240 239 238 238 237 236 235 233 232 228 226 230 232 232 229 225 226 228 229 229 229 228 227 226 225 223 221 219
242 241 241 241 240 240 240 240 241 242 243 243 244 245 247 248 250 252 254 256 257 258 259 259 260 261 261 262 264 266 269 271 271 273 274 270 264 258 253 247 245 244 243 243 242 241 241 240 236 236 238 240 242 243 243 241 240 240 238 237 236 234 234 234 233 233 233 232 230 226 225 227 229 229 228 225 224 225 226 228 227 225 225 224 223 222 220 219
241 241 242 242 242 242 242 241 242 242 243 243 244 246 247 249 251 253 255 256 256 257 257 257 259 260 261 263 265 268 269 269 270 271 269 263 259 254 248 245 243 242 242 243 240 238 238 237 235 234 236 239 240 243 243 241 239 239 237 236 234 232 230 230 230 230 230 230 229 226 224 225 227 227 227 226 224 224 225 225 225 223 223 222 221 220 219 218
240 240 241 241 242 243 243 243 244 244 244 245 246 248 249 251 252 253 254 255 255 255 256 257 259 261 263 264 265 267 268 268 269 269 263 258 255 250 246 244 243 241 241 241 238 236 236 235 234 233 235 237 240 243 244 243 240 238 236 234 232 231 229 229 229 229 229 228 228 225 222 223 225 225 225 225 224 224 223 223 222 221 220 220 219 218 216 214
240 240 240 240 241 242 243 243 244 244 244 245 246 248 249 250 251 252 253 253 254 255 257 259 260 262 263 263 264 265 266 268 268 264 259 255 249 244 244 244 241 240 240 238 235 233 234 235 233 232 234 236 238 242 244 242 238 236 235 233 231 230 230 229 229 229 228 227 227 225 221 220 221 222 223 224 224 224 222 220 218 217 218 218 218 217 215 214
241 242 242 242 242 243 244 244 243 244 244 245 246 247 248 249 250 252 253 254 255 257 258 259 260 260 261 261 262 264 266 267 265 259 255 251 243 238 241 242 240 240 239 237 233 230 232 235 236 234 234 235 236 239 242 242 237 234 234 232 229 229 229 229 229 228 228 227 227 225 222 219 219 219 220 222 223 223 221 217 214 212 214 215 215 215 213 212
241 242 243 243 244 244 245 246 246 247 247 248 249 250 250 251 252 253 254 255 255 256 257 257 258 258 259 260 262 264 264 264 260 255 251 244 237 234 237 240 240 239 238 237 233 229 229 234 237 237 234 234 236 237 242 243 236 232 232 230 227 227 228 228 229 229 228 228 227 225 223 221 218 218 219 220 220 220 218 215 211 209 209 211 210 209 210 209
241 242 243 244 245 245 246 247 248 249 250 251 251 251 252 252 252 252 253 254 255 255 256 257 257 259 260 261 262 262 260 259 256 252 244 236 233 232 234 237 239 238 237 237 233 229 228 231 236 237 234 234 235 237 241 243 236 230 229 228 226 225 226 227 227 227 228 227 225 223 223 222 219 218 218 218 217 218 216 213 210 208 207 207 204 203 208 209
240 241 242 243 244 245 246 247 248 249 250 251 251 252 252 253 253 253 253 254 256 256 257 258 259 259 259 260 259 258 255 253 251 245 237 231 231 232 233 235 238 238 237 237 234 230 229 230 234 237 236 234 234 236 239 240 235 229 227 226 225 224 225 225 224 225 227 227 225 222 221 221 220 217 217 217 216 215 214 212 210 209 207 204 200 198 204 211
239 241 242 244 245 247 248 249 249 250 251 252 253 254 255 255 256 256 256 256 257 258 258 259 259 258 257 256 255 253 249 246 242 237 232 229 229 230 232 234 237 238 238 237 236 233 230 230 233 236 237 235 234 235 238 236 232 229 227 226 225 224 225 224 222 223 226 226 225 223 221 220 219 218 217 217 216 214 213 211 210 210 208 205 201 199 202 208
242 244 246 248 249 251 252 252 252 253 253 254 255 255 257 258 258 258 257 257 257 257 256 256 255 254 253 252 249 246 242 238 235 232 230 229 228 229 231 233 235 237 237 237 237 235 232 230 231 234 236 236 234 234 235 233 229 228 226 226 225 224 224 223 221 223 225 225 225 223 221 220 219 218 217 217 216 215 213 211 211 211 210 207 204 202 202 205
246 248 249 251 252 253 253 253 253 253 253 254 255 256 256 257 257 257 256 255 254 254 254 253 251 249 248 246 243 241 237 233 231 230 229 229 228 228 230 232 233 234 235 234 235 236 234 230 230 232 234 235 233 230 229 228 226 226 226 225 225 224 224 223 222 222 224 224 224 224 222 220 218 218 217 217 217 215 213 211 211 211 211 210 207 204 204 204
246 248 249 250 251 251 251 252 252 253 254 254 255 256 255 255 255 255 255 254 253 253 253 253 252 249 246 243 240 238 235 232 230 229 229 228 227 227 229 230 231 232 232 230 230 233 234 232 230 230 231 231 229 225 222 223 224 225 226 225 225 224 224 223 222 222 223 224 224 223 222 221 219 218 218 218 217 216 214 212 211 212 212 212 209 206 204 202
244 245 246 246 247 248 250 251 252 253 254 255 256 256 256 256 256 257 256 256 255 254 253 252 252 251 248 245 241 238 235 233 231 229 229 228 227 227 230 230 230 231 232 230 229 231 232 231 230 230 230 227 224 220 218 220 222 223 225 226 225 224 224 224 223 222 223 224 224 222 221 221 220 219 218 218 218 217 215 213 212 212 212 212 210 208 204 201
238 239 240 242 245 248 251 253 254 255 257 257 258 259 260 261 261 261 260 260 258 257 255 253 251 250 249 247 244 240 236 233 231 230 229 228 226 228 230 231 231 233 235 234 233 234 234 231 229 230 229 226 222 219 217 219 220 221 223 224 224 223 222 223 224 223 223 224 225 223 221 221 221 220 219 219 218 217 217 215 214 213 213 212 210 208 205 202
231 235 238 242 245 248 252 254 257 258 260 261 262 263 264 265 265 265 264 263 262 260 258 255 253 251 249 246 243 241 238 234 231 229 228 228 226 227 229 229 230 234 237 235 232 234 236 234 230 228 227 225 222 220 217 218 219 219 221 223 223 222 221 222 224 224 224 224 225 224 222 221 221 221 220 220 219 218 217 217 215 214 214 213 211 208 206 204
Height
10630 10632 10633 10635 10636 10638 10639 10641 10642 10643 10645 10646 10648 10649 10651 10654 10656 10658 10661 10665 10668 10671 10674 10676 10679 10681 10684 10686 10688 10690 10692 10694 10696 10697 10699 10701 10702 10704 10707 10707 10709 10711 10713 10715 10716 10718 10719 10720 10722 10723 10725 10727 10728 10729 10731 10732 10733 10733 10734 10734 10732 10730 10729 10731 10735 10737 10740 10742 10743 10744 10747 10750 10751 10752 10753 10754 10756 10759 10761 10762 10765 10768 10771 10774 10776 10777 10777 10776
10623 10625 10626 10627 10629 10631 10632 10633 10635 10636 10637 10639 10640 10642 10644 10646 10649 10651 10654 10658 10661 10664 10667 10669 10672 10674 10677 10679 10681 10683 10685 10687 10689 10690 10692 10693 10695 10697 10700 10701 10702 10705 10707 10708 10709 10711 10713 10714 10715 10717 10718 10720 10722 10723 10725 10726 10727 10727 10727 10726 10724 10722 10722 10726 10728 10730 10733 10735 10736 10737 10739 10742 10744 10745 10746 10747 10749 10752 10753 10756 10758 10761 10764 10767 10769 10769 10769 10771
10616 10617 10619 10620 10622 10623 10625 10626 10627 10629 10630 10632 10633 10635 10637 10639 10642 10644 10647 10651 10654 10657 10660 10662 10665 10667 10669 10672 10674 10676 10678 10680 10682 10683 10684 10685 10688 10691 10693 10694 10696 10698 10700 10702 10703 10704 10705 10707 10709 10710 10712 10713 10716 10718 10719 10720 10720 10720 10720 10718 10717 10716 10716 10719 10721 10722 10726 10727 10729 10731 10732 10735 10737 10738 10739 10740 10742 10744 10747 10749 10752 10754 10757 10761 10762 10762 10763 10767
10609 10610 10612 10613 10615 10616 10617 10619 10620 10622 10623 10625 10627 10628 10631 10633 10635 10638 10641 10644 10647 10650 10653 10655 10658 10660 10662 10664 10667 10669 10671 10673 10675 10676 10676 10679 10682 10684 10686 10687 10689 10691 10693 10695 10696 10697 10698 10700 10702 10704 10705 10707 10709 10712 10714 10714 10714 10713 10712 10711 10710 10709 10709 10712 10713 10715 10718 10720 10722 10724 10725 10726 10729 10732 10733 10733 10734 10737 10740 10742 10744 10747 10751 10754 10755 10755 10758 10765
10602 10603 10605 10606 10608 10609 10610 10611 10613 10615 10616 10618 10620 10622 10624 10627 10629 10631 10634 10637 10640 10643 10646 10648 10651 10653 10655 10657 10659 10661 10663 10666 10668 10668 10669 10672 10674 10677 10679 10680 10682 10684 10686 10688 10689 10690 10691 10693 10695 10697 10699 10701 10703 10706 10707 10707 10707 10705 10703 10704 10703 10702 10702 10704 10706 10708 10711 10713 10715 10717 10717 10718 10722 10725 10726 10726 10727 10730 10733 10735 10737 10741 10745 10747 10747 10748 10752 10759
10595 10596 10597 10599 10600 10601 10603 10604 10606 10608 10610 10612 10614 10617 10619 10621 10623 10625 10628 10631 10634 10636 10639 10642 10644 10646 10648 10650 10652 10654 10656 10660 10660 10661 10663 10665 10667 10669 10671 10673 10675 10677 10679 10681 10682 10683 10685 10687 10689 10691 10693 10695 10696 10698 10700 10700 10699 10696 10695 10697 10696 10695 10695 10697 10699 10701 10704 10705 10707 10709 10708 10710 10714 10718 10719 10719 10721 10724 10726 10728 10732 10736 10738 10739 10738 10740 10744 10751
10588 10589 10590 10591 10593 10594 10596 10598 10599 10602 10604 10606 10609 10611 10613 10615 10617 10619 10622 10625 10627 10630 10632 10635 10637 10640 10642 10643 10645 10647 10650 10653 10653 10654 10656 10657 10659 10662 10664 10666 10668 10670 10672 10674 10676 10677 10679 10681 10683 10685 10687 10688 10688 10690 10692 10692 10691 10688 10688 10690 10690 10688 10687 10690 10692 10692 10695 10696 10699 10701 10700 10703 10708 10711 10712 10713 10715 10717 10720 10723 10727 10730 10731 10730 10729 10732 10737 10742
10582 10583 10584 10585 10586 10587 10589 10592 10594 10596 10598 10601 10603 10605 10608 10610 10611 10614 10616 10618 10621 10624 10626 10628 10631 10633 10635 10636 10638 10640 10643 10646 10646 10647 10649 10650 10652 10654 10657 10659 10662 10664 10666 10667 10669 10671 10673 10675 10676 10678 10678 10679 10680 10682 10684 10684 10683 10681 10681 10683 10683 10681 10680 10683 10684 10684 10686 10688 10692 10694 10692 10697 10702 10704 10705 10706 10708 10711 10715 10718 10721 10723 10722 10721 10722 10726 10730 10733
10575 10576 10577 10578 10580 10581 10583 10586 10588 10590 10593 10595 10598 10600 10602 10604 10606 10608 10610 10613 10615 10617 10620 10622 10624 10626 10628 10629 10631 10634 10637 10638 10639 10640 10642 10644 10645 10647 10650 10652 10655 10657 10659 10661 10663 10664 10666 10667 10668 10669 10670 10671 10672 10675 10676 10676 10675 10673 10674 10676 10675 10674 10673 10675 10675 10675 10679 10681 10684 10685 10686 10692 10696 10697 10697 10698 10702 10705 10709 10712 10714 10715 10714 10714 10716 10719 10722 10726
10569 10570 10571 10572 10574 10576 10578 10580 10582 10585 10587 10590 10592 10594 10597 10598 10600 10602 10605 10607 10609 10611 10613 10615 10617 10619 10621 10622 10624 10628 10630 10631 10632 10634 10635 10637 10638 10640 10643 10646 10648 10651 10653 10655 10656 10657 10658 10659 10660 10660 10661 10663 10665 10667 10668 10668 10667 10666 10666 10667 10668 10668 10667 10668 10667 10668 10672 10673 10676 10678 10679 10686 10690 10690 10689 10691 10696 10699 10703 10706 10707 10707 10706 10708 10710 10711 10715 10719
10562 10564 10565 10567 10568 10570 10572 10575 10577 10579 10581 10584 10586 10588 10591 10592 10594 10596 10599 10601 10603 10605 10607 10609 10611 10612 10614 10616 10618 10621 10623 10623 10625 10627 10628 10630 10632 10634 10636 10639 10642 10644 10646 10647 10648 10649 10650 10651 10651 10653 10654 10655 10657 10659 10661 10661 10659 10658 10658 10659 10660 10662 10661 10660 10659 10660 10665 10665 10668 10671 10673 10679 10683 10682 10682 10685 10690 10693 10697 10699 10700 10699 10699 10701 10703 10704 10708 10713
10556 10558 10559 10561 10562 10564 10567 10569 10571 10573 10576 10578 10580 10582 10584 10586 10588 10591 10593 10595 10597 10599 10601 10603 10604 10606 10607 10609 10613 10615 10615 10616 10619 10621 10622 10624 10625 10627 10630 10632 10634 10636 10638 10640 10641 10642 10643 10643 10644 10645 10646 10647 10650 10652 10652 10652 10652 10651 10651 10651 10653 10655 10654 10653 10652 10654 10657 10657 10660 10666 10667 10671 10675 10675 10676 10679 10684 10687 10691 10693 10693 10692 10692 10694 10696 10698 10702 10707
10550 10552 10553 10555 10556 10558 10561 10563 10565 10567 10570 10572 10574 10577 10579 10580 10583 10585 10587 10589 10591 10592 10594 10596 10597 10599 10600 10604 10607 10607 10608 10610 10612 10614 10616 10617 10618 10620 10623 10625 10628 10629 10632 10634 10634 10635 10636 10636 10637 10637 10638 10640 10642 10643 10643 10643 10644 10643 10644 10644 10646 10647 10646 10647 10647 10647 10649 10649 10654 10660 10661 10663 10665 10668 10670 10673 10677 10681 10684 10686 10686 10686 10686 10687 10689 10693 10697 10701
10543 10546 10547 10549 10550 10552 10554 10557 10559 10561 10564 10567 10569 10571 10573 10575 10577 10579 10581 10583 10584 10586 10588 10589 10590 10592 10593 10598 10602 10600 10601 10604 10605 10608 10610 10611 10612 10615 10617 10620 10622 10623 10625 10627 10627 10627 10628 10627 10628 10628 10629 10631 10632 10634 10634 10635 10636 10637 10637 10638 10639 10639 10639 10640 10641 10640 10641 10643 10648 10654 10656 10655 10656 10661 10665 10667 10671 10674 10678 10680 10680 10679 10678 10680 10683 10688 10691 10695
10537 10539 10541 10543 10545 10547 10548 10550 10553 10555 10558 10561 10564 10566 10567 10569 10571 10573 10575 10576 10577 10579 10581 10582 10584 10586 10587 10593 10597 10595 10595 10598 10600 10602 10603 10605 10607 10610 10612 10613 10614 10615 10618 10619 10618 10619 10619 10618 10619 10620 10621 10622 10623 10625 10626 10627 10628 10630 10631 10631 10632 10632 10632 10634 10635 10634 10634 10637 10642 10647 10650 10648 10648 10654 10659 10661 10665 10668 10672 10673 10673 10671 10670 10673 10678 10681 10684 10688
10530 10533 10535 10537 10539 10541 10542 10544 10546 10549 10552 10556 10558 10560 10561 10563 10565 10567 10568 10570 10571 10572 10574 10576 10578 10580 10582 10587 10591 10590 10590 10591 10594 10596 10597 10598 10601 10603 10604 10604 10605 10607 10610 10610 10610 10609 10610 10610 10611 10612 10613 10614 10615 10617 10618 10620 10621 10623 10623 10624 10625 10626 10626 10627 10628 10628 10628 10630 10635 10640 10644 10643 10640 10645 10651 10655 10658 10661 10664 10666 10665 10663 10663 10667 10672 10674 10676 10679
10524 10527 10529 10532 10533 10535 10537 10539 10541 10544 10547 10550 10553 10554 10555 10556 10558 10560 10562 10563 10564 10566 10568 10570 10573 10575 10577 10581 10583 10584 10585 10584 10586 10588 10590 10591 10593 10595 10595 10596 10597 10598 10600 10601 10601 10601 10601 10602 10603 10604 10605 10606 10607 10609 10610 10612 10614 10616 10617 10618 10619 10620 10620 10620 10621 10623 10622 10623 10628 10633 10637 10637 10634 10638 10644 10648 10652 10654 10657 10658 10657 10655 10656 10660 10664 10665 10667 10670
10518 10520 10523 10526 10528 10529 10531 10533 10536 10539 10542 10545 10547 10548 10549 10550 10552 10553 10555 10557 10558 10561 10563 10565 10567 10570 10572 10574 10575 10577 10579 10578 10578 10579 10581 10583 10585 10586 10587 10588 10589 10590 10592 10593 10593 10593 10594 10594 10595 10596 10597 10598 10600 10601 10602 10604 10607 10610 10612 10612 10612 10612 10613 10613 10614 10616 10617 10617 10621 10626 10630 10631 10631 10632 10636 10640 10644 10647 10649 10650 10650 10649 10649 10651 10654 10655 10658 10663
10511 10514 10517 10520 10522 10523 10526 10528 10530 10534 10537 10540 10542 10542 10542 10543 10545 10547 10549 10551 10553 10556 10558 10560 10561 10563 10565 10566 10568 10570 10571 10572 10573 10572 10573 10575 10578 10579 10579 10581 10581 10582 10584 10584 10585 10587 10588 10588 10588 10588 10588 10590 10592 10593 10594 10597 10601 10604 10605 10605 10605 10605 10605 10605 10606 10608 10611 10612 10614 10618 10623 10626 10627 10627 10628 10631 10637 10640 10641 10643 10643 10642 10642 10644 10646 10648 10651 10657
10504 10507 10511 10513 10515 10517 10520 10522 10525 10528 10531 10535 10536 10536 10537 10538 10540 10542 10544 10546 10548 10551 10553 10554 10555 10556 10557 10559 10562 10564 10565 10566 10567 10566 10567 10568 10571 10572 10572 10573 10573 10574 10576 10577 10579 10581 10582 10582 10581 10579 10580 10582 10584 10585 10588 10591 10595 10597 10598 10599 10598 10597 10596 10598 10599 10600 10605 10608 10608 10611 10617 10620 10620 10621 10622 10624 10628 10632 10633 10634 10635 10634 10634 10636 10638 10641 10645 10651
10497 10500 10504 10506 10509 10511 10513 10516 10519 10522 10526 10529 10530 10530 10531 10533 10535 10538 10539 10541 10543 10546 10547 10548 10550 10549 10550 10554 10557 10558 10560 10561 10560 10560 10561 10562 10564 10565 10565 10565 10566 10567 10568 10571 10573 10574 10575 10575 10571 10570 10572 10574 10576 10578 10582 10585 10588 10590 10591 10591 10590 10589 10588 10591 10593 10594 10600 10604 10602 10605 10611 10613 10614 10615 10616 10618 10621 10623 10625 10627 10628 10627 10627 10629 10631 10634 10638 10645
10490 10493 10496 10499 10502 10504 10507 10510 10513 10516 10520 10523 10524 10524 10525 10527 10531 10533 10534 10535 10537 10540 10541 10543 10544 10542 10544 10550 10552 10553 10555 10555 10553 10554 10555 10556 10558 10557 10557 10558 10558 10559 10561 10565 10566 10565 10567 10565 10561 10563 10566 10567 10568 10572 10575 10578 10581 10581 10582 10582 10581 10581 10582 10584 10586 10588 10594 10597 10596 10599 10604 10606 10607 10609 10610 10613 10614 10614 10617 10620 10620 10619 10621 10622 10625 10629 10633 10640
10482 10486 10489 10492 10495 10498 10500 10503 10507 10510 10514 10517 10518 10518 10519 10522 10526 10528 10529 10528 10530 10535 10536 10537 10538 10536 10540 10545 10547 10549 10550 10547 10546 10548 10549 10549 10550 10550 10551 10551 10551 10552 10555 10556 10556 10556 10557 10555 10554 10557 10558 10559 10562 10565 10568 10570 10572 10572 10573 10574 10573 10574 10577 10578 10579 10584 10590 10590 10590 10593 10598 10599 10600 10602 10604 10606 10607 10607 10610 10612 10612 10613 10615 10617 10620 10625 10629 10635
10475 10478 10481 10484 10487 10490 10493 10496 10500 10504 10508 10511 10512 10513 10514 10517 10521 10523 10523 10520 10522 10529 10531 10531 10532 10532 10536 10539 10540 10543 10544 10541 10539 10541 10543 10542 10542 10544 10544 10544 10544 10545 10546 10545 10546 10548 10547 10546 10548 10550 10550 10552 10555 10557 10560 10562 10564 10565 10566 10566 10566 10567 10571 10572 10573 10580 10584 10582 10583 10588 10592 10592 10593 10595 10597 10600 10601 10600 10601 10604 10606 10606 10608 10612 10616 10619 10623 10627
10467 10471 10474 10477 10480 10483 10486 10489 10493 10497 10502 10504 10505 10507 10509 10512 10515 10516 10515 10513 10515 10523 10526 10526 10527 10526 10529 10533 10534 10536 10538 10535 10531 10533 10536 10535 10535 10537 10537 10537 10537 10536 10535 10536 10538 10539 10538 10538 10540 10542 10543 10545 10547 10550 10552 10554 10556 10558 10558 10558 10559 10561 10565 10567 10569 10573 10576 10575 10577 10583 10585 10584 10586 10588 10590 10592 10594 10593 10594 10598 10599 10599 10603 10607 10610 10612 10616 10620
10460 10463 10466 10469 10473 10476 10479 10482 10486 10491 10495 10498 10499 10502 10503 10506 10509 10508 10508 10507 10508 10516 10521 10521 10522 10521 10522 10525 10527 10528 10530 10528 10524 10527 10529 10526 10527 10529 10529 10531 10529 10526 10526 10528 10530 10531 10529 10530 10533 10535 10536 10538 10541 10542 10543 10546 10549 10550 10549 10551 10554 10556 10558 10562 10563 10566 10568 10569 10572 10576 10577 10577 10578 10580 10582 10585 10587 10587 10589 10591 10592 10594 10598 10601 10603 10607 10610 10614
10452 10455 10458 10461 10466 10470 10471 10473 10478 10484 10488 10491 10493 10495 10498 10500 10501 10502 10502 10501 10502 10509 10513 10514 10516 10516 10516 10518 10520 10521 10522 10521 10519 10521 10521 10518 10520 10522 10522 10522 10519 10517 10519 10521 10524 10523 10520 10522 10527 10529 10530 10532 10533 10533 10535 10540 10542 10541 10542 10546 10548 10549 10552 10556 10558 10559 10560 10563 10565 10568 10569 10570 10570 10573 10576 10579 10581 10582 10583 10584 10586 10589 10592 10595 10598 10601 10604 10608
10444 10447 10450 10454 10459 10463 10464 10466 10471 10478 10481 10483 10486 10489 10491 10493 10494 10495 10496 10495 10497 10502 10505 10507 10509 10511 10511 10511 10513 10514 10513 10513 10513 10514 10514 10512 10513 10514 10514 10512 10510 10511 10514 10516 10516 10513 10512 10516 10520 10521 10523 10524 10523 10525 10529 10533 10533 10533 10536 10540 10542 10544 10546 10549 10552 10552 10555 10558 10558 10560 10563 10564 10564 10566 10570 10572 10574 10577 10577 10578 10581 10584 10588 10591 10594 10596 10599 10604
10435 10439 10443 10448 10452 10454 10456 10459 10465 10471 10473 10476 10480 10482 10484 10486 10487 10489 10489 10490 10492 10495 10497 10501 10503 10504 10505 10505 10506 10506 10506 10506 10506 10507 10507 10506 10505 10506 10505 10504 10504 10506 10508 10508 10507 10505 10507 10510 10512 10514 10516 10515 10515 10519 10523 10524 10525 10528 10531 10534 10536 10538 10540 10543 10546 10547 10550 10552 10551 10553 10558 10559 10558 10560 10564 10566 10568 10570 10572 10574 10577 10580 10584 10587 10590 10593 10596 10600
10427 10432 10437 10440 10442 10445 10449 10454 10458 10462 10465 10469 10473 10475 10477 10479 10481 10482 10482 10484 10487 10488 10491 10494 10496 10497 10497 10498 10498 10498 10499 10499 10499 10500 10502 10500 10498 10498 10498 10497 10498 10500 10501 10501 10499 10498 10501 10504 10506 10508 10507 10507 10510 10514 10517 10518 10521 10523 10526 10528 10530 10533 10535 10538 10541 10542 10545 10546 10544 10547 10552 10554 10553 10554 10558 10561 10562 10564 10567 10569 10572 10575 10579 10584 10587 10590 10594 10597
10419 10425 10429 10431 10433 10437 10443 10448 10450 10453 10458 10462 10465 10468 10470 10472 10474 10475 10475 10477 10481 10482 10485 10487 10488 10489 10490 10490 10491 10491 10491 10492 10492 10494 10495 10494 10492 10491 10491 10491 10492 10493 10495 10494 10491 10492 10497 10499 10501 10501 10501 10503 10506 10509 10511 10513 10515 10517 10520 10523 10526 10528 10531 10534 10536 10538 10540 10539 10538 10542 10547 10548 10547 10548 10553 10556 10557 10559 10562 10564 10567 10570 10574 10579 10583 10586 10590 10593
10413 10418 10421 10423 10425 10429 10435 10440 10442 10445 10450 10454 10458 10461 10463 10465 10467 10467 10468 10472 10475 10477 10478 10479 10480 10481 10482 10483 10484 10484 10485 10485 10486 10487 10488 10488 10486 10485 10484 10485 10486 10488 10489 10486 10484 10489 10494 10495 10495 10495 10496 10499 10501 10503 10505 10507 10509 10512 10516 10519 10521 10524 10527 10529 10530 10532 10533 10532 10533 10538 10542 10543 10543 10544 10549 10551 10552 10554 10557 10560 10562 10565 10570 10575 10578 10581 10584 10587
10406 10410 10413 10415 10418 10422 10427 10431 10434 10438 10442 10447 10451 10453 10456 10458 10458 10459 10463 10466 10468 10469 10470 10471 10472 10473 10474 10475 10477 10478 10478 10479 10479 10479 10480 10481 10480 10478 10478 10479 10480 10482 10482 10480 10480 10486 10489 10488 10489 10490 10491 10493 10495 10497 10499 10500 10504 10508 10512 10515 10517 10520 10521 10522 10524 10526 10527 10527 10529 10534 10538 10539 10539 10541 10545 10547 10547 10550 10552 10555 10558 10561 10565 10570 10573 10576 10577 10579
10398 10401 10405 10407 10410 10414 10419 10424 10427 10430 10435 10439 10443 10447 10449 10450 10450 10453 10458 10460 10460 10461 10462 10463 10464 10465 10466 10468 10470 10471 10472 10473 10473 10472 10473 10474 10473 10472 10473 10474 10474 10476 10476 10474 10476 10481 10483 10483 10484 10484 10485 10488 10490 10491 10493 10497 10501 10504 10508 10510 10512 10513 10515 10516 10519 10520 10522 10524 10526 10530 10534 10535 10535 10536 10540 10542 10543 10545 10548 10551 10553 10556 10560 10564 10568 10570 10572 10576
10391 10394 10397 10400 10404 10407 10412 10416 10420 10423 10427 10431 10436 10439 10440 10442 10445 10448 10451 10452 10452 10453 10454 10455 10456 10458 10460 10461 10463 10465 10466 10466 10466 10466 10466 10466 10466 10466 10467 10468 10469 10470 10470 10470 10471 10475 10477 10478 10478 10479 10480 10483 10485 10487 10490 10494 10496 10499 10503 10505 10505 10507 10510 10512 10514 10516 10517 10520 10522 10525 10529 10529 10529 10531 10536 10538 10539 10541 10543 10546 10548 10552 10556 10559 10562 10566 10570 10574
10384 10386 10389 10393 10397 10400 10405 10409 10413 10417 10420 10424 10428 10430 10433 10436 10440 10441 10442 10443 10444 10444 10446 10448 10450 10451 10453 10454 10456 10457 10459 10459 10459 10459 10459 10459 10460 10460 10462 10463 10463 10464 10465 10465 10466 10469 10472 10473 10474 10475 10476 10478 10481 10483 10486 10489 10491 10494 10498 10499 10500 10503 10506 10508 10509 10511 10513 10515 10517 10521 10523 10523 10524 10527 10531 10534 10535 10536 10539 10541 10544 10548 10551 10554 10558 10562 10567 10569
10377 10380 10383 10386 10390 10394 10398 10403 10407 10410 10414 10417 10420 10423 10426 10430 10432 10433 10434 10435 10436 10437 10439 10441 10442 10444 10445 10447 10448 10450 10451 10452 10453 10453 10453 10453 10453 10454 10455 10456 10458 10459 10459 10460 10461 10464 10467 10468 10469 10470 10471 10474 10476 10479 10482 10484 10487 10490 10492 10493 10496 10500 10502 10503 10505 10507 10509 10511 10513 10516 10518 10518 10520 10522 10525 10529 10531 10532 10535 10537 10540 10544 10547 10550 10554 10557 10561 10564
10371 10375 10378 10381 10384 10387 10392 10396 10400 10404 10407 10409 10412 10415 10419 10422 10424 10426 10426 10427 10429 10430 10431 10433 10435 10437 10438 10439 10440 10441 10443 10445 10446 10447 10447 10447 10447 10447 10448 10450 10452 10453 10454 10455 10457 10459 10461 10463 10465 10466 10467 10470 10473 10474 10477 10480 10482 10484 10486 10489 10493 10495 10496 10498 10500 10502 10504 10507 10509 10511 10513 10514 10515 10517 10520 10524 10526 10528 10531 10533 10536 10540 10542 10545 10549 10553 10557 10561
10366 10370 10373 10375 10378 10381 10385 10389 10393 10396 10400 10402 10405 10408 10411 10414 10416 10418 10418 10419 10421 10422 10424 10426 10427 10429 10431 10432 10433 10433 10435 10437 10439 10440 10441 10441 10441 10440 10442 10444 10446 10448 10449 10451 10453 10455 10456 10458 10460 10462 10463 10466 10469 10470 10473 10476 10478 10480 10482 10485 10488 10490 10492 10494 10496 10498 10500 10503 10505 10506 10508 10509 10510 10512 10515 10519 10522 10525 10527 10530 10533 10536 10539 10542 10546 10550 10554 10558
10362 10365 10368 10371 10373 10376 10379 10383 10386 10389 10392 10395 10398 10401 10403 10406 10409 10410 10411 10412 10413 10415 10416 10418 10420 10421 10423 10424 10425 10426 10427 10429 10431 10433 10434 10434 10435 10435 10436 10439 10442 10443 10445 10447 10449 10450 10451 10453 10456 10458 10460 10462 10465 10467 10469 10472 10474 10476 10478 10481 10483 10486 10488 10490 10492 10494 10496 10498 10500 10502 10503 10504 10506 10508 10511 10515 10518 10521 10524 10527 10530 10533 10536 10539 10543 10546 10549 10552
10358 10360 10363 10366 10368 10371 10374 10377 10380 10383 10386 10388 10391 10393 10396 10399 10401 10402 10403 10405 10406 10407 10409 10411 10412 10413 10414 10415 10417 10419 10419 10420 10423 10426 10427 10428 10429 10430 10430 10433 10436 10438 10440 10442 10444 10445 10447 10449 10451 10453 10456 10458 10461 10463 10465 10467 10470 10472 10474 10477 10479 10482 10484 10486 10488 10490 10492 10494 10496 10497 10498 10499 10502 10505 10508 10511 10514 10517 10521 10524 10527 10530 10534 10537 10540 10542 10545 10549
10354 10356 10359 10361 10364 10366 10369 10372 10374 10377 10379 10381 10384 10386 10389 10392 10394 10395 10396 10397 10398 10400 10401 10402 10403 10404 10406 10407 10409 10411 10412 10412 10415 10418 10420 10421 10423 10424 10425 10427 10430 10433 10436 10438 10439 10440 10443 10444 10445 10449 10453 10454 10456 10459 10460 10463 10466 10468 10470 10473 10475 10478 10480 10482 10484 10485 10488 10490 10492 10493 10494 10496 10498 10501 10504 10507 10510 10514 10517 10521 10524 10527 10531 10534 10537 10540 10543 10546
10350 10352 10354 10356 10359 10362 10364 10366 10369 10371 10373 10375 10377 10380 10382 10384 10386 10388 10389 10389 10391 10392 10392 10394 10395 10396 10398 10400 10401 10403 10405 10405 10407 10410 10413 10414 10417 10419 10420 10422 10425 10428 10431 10433 10434 10436 10438 10440 10441 10444 10448 10450 10452 10454 10456 10458 10462 10464 10466 10469 10471 10473 10475 10477 10480 10482 10484 10486 10488 10489 10491 10492 10494 10497 10500 10504 10507 10510 10513 10517 10520 10523 10527 10530 10534 10538 10541 10542
10346 10347 10349 10352 10354 10357 10359 10361 10363 10365 10367 10369 10371 10372 10374 10376 10378 10381 10382 10382 10383 10383 10384 10385 10387 10388 10390 10391 10393 10394 10397 10399 10400 10402 10406 10408 10411 10413 10416 10418 10420 10423 10426 10428 10430 10432 10433 10435 10436 10438 10442 10446 10448 10450 10453 10455 10457 10460 10462 10464 10466 10468 10470 10473 10476 10479 10480 10482 10483 10485 10487 10489 10491 10494 10497 10501 10504 10506 10509 10512 10515 10519 10523 10527 10531 10534 10536 10538
10341 10343 10345 10347 10350 10352 10354 10356 10358 10360 10361 10362 10364 10365 10367 10369 10371 10373 10375 10375 10374 10375 10375 10376 10378 10380 10381 10383 10384 10386 10389 10391 10392 10395 10399 10402 10406 10409 10412 10414 10416 10419 10421 10424 10426 10427 10428 10430 10431 10433 10437 10441 10443 10446 10448 10450 10452 10455 10457 10459 10462 10464 10466 10468 10472 10475 10476 10477 10479 10481 10482 10485 10488 10491 10494 10497 10499 10502 10504 10508 10511 10515 10519 10523 10526 10528 10531 10535
10337 10339 10341 10343 10345 10348 10350 10351 10353 10354 10355 10356 10358 10359 10360 10362 10364 10365 10367 10367 10366 10366 10367 10368 10369 10371 10373 10375 10376 10378 10381 10384 10386 10389 10393 10397 10401 10404 10408 10411 10413 10414 10417 10419 10421 10423 10424 10426 10427 10429 10432 10435 10439 10441 10443 10445 10448 10451 10453 10456 10458 10460 10462 10464 10468 10471 10472 10473 10475 10477 10478 10481 10485 10488 10490 10492 10495 10498 10501 10504 10507 10511 10515 10519 10522 10525 10527 10530
10333 10335 10337 10339 10341 10343 10345 10346 10348 10349 10349 10350 10351 10353 10354 10355 10356 10357 10358 10358 10358 10358 10358 10360 10361 10363 10365 10367 10369 10371 10374 10378 10380 10384 10388 10392 10396 10400 10403 10406 10408 10409 10412 10414 10416 10418 10419 10421 10423 10424 10426 10429 10433 10437 10439 10441 10444 10447 10449 10452 10454 10456 10458 10460 10463 10466 10468 10470 10472 10473 10475 10478 10481 10484 10486 10488 10491 10494 10498 10501 10504 10508 10511 10515 10518 10521 10523 10525
10330 10332 10334 10335 10337 10339 10340 10341 10342 10343 10344 10345 10346 10347 10348 10348 10348 10349 10350 10350 10350 10350 10351 10353 10355 10356 10358 10360 10362 10365 10368 10372 10375 10378 10383 10387 10391 10395 10399 10400 10402 10404 10406 10408 10410 10411 10414 10417 10418 10419 10421 10424 10428 10432 10434 10437 10439 10442 10445 10447 10449 10452 10454 10456 10459 10462 10464 10466 10467 10469 10471 10474 10476 10479 10482 10485 10488 10491 10494 10497 10501 10504 10507 10510 10514 10516 10519 10522
10327 10328 10330 10332 10333 10334 10335 10336 10337 10338 10339 10340 10341 10341 10342 10342 10342 10343 10343 10343 10344 10345 10346 10347 10348 10350 10351 10353 10356 10360 10363 10366 10370 10373 10376 10381 10386 10390 10392 10393 10396 10397 10398 10400 10403 10405 10409 10412 10413 10414 10416 10419 10423 10426 10430 10432 10435 10438 10440 10443 10445 10448 10451 10453 10455 10457 10460 10462 10463 10465 10468 10470 10472 10475 10478 10481 10484 10487 10490 10493 10496 10500 10503 10506 10510 10513 10516 10519
10324 10326 10327 10328 10329 10331 10332 10332 10333 10334 10335 10336 10336 10336 10336 10337 10337 10337 10337 10337 10338 10339 10340 10341 10342 10343 10344 10347 10350 10354 10357 10361 10364 10367 10371 10375 10380 10383 10385 10387 10390 10389 10389 10394 10398 10400 10403 10407 10409 10410 10412 10415 10418 10422 10425 10427 10430 10433 10435 10438 10441 10444 10447 10449 10451 10454 10456 10458 10459 10461 10464 10466 10468 10471 10474 10477 10480 10484 10487 10489 10492 10496 10499 10502 10506 10509 10512 10515
10322 10323 10324 10325 10327 10328 10328 10329 10330 10331 10331 10331 10331 10331 10331 10331 10331 10331 10330 10331 10331 10332 10333 10334 10335 10336 10337 10340 10344 10347 10351 10354 10358 10361 10365 10369 10374 10378 10378 10380 10382 10382 10384 10390 10394 10396 10399 10402 10404 10406 10408 10411 10414 10417 10420 10423 10425 10428 10431 10433 10436 10439 10442 10445 10447 10449 10452 10453 10455 10457 10460 10462 10464 10467 10470 10473 10477 10480 10483 10486 10489 10492 10495 10498 10502 10505 10508 10511
10319 10320 10321 10323 10324 10325 10325 10326 10326 10327 10327 10327 10326 10326 10326 10326 10325 10324 10324 10324 10325 10325 10326 10327 10328 10329 10330 10333 10336 10339 10343 10347 10351 10355 10358 10363 10368 10369 10369 10372 10376 10378 10380 10385 10390 10393 10395 10398 10400 10402 10404 10407 10409 10412 10415 10417 10420 10423 10426 10428 10431 10434 10437 10440 10442 10445 10447 10449 10451 10453 10455 10458 10460 10463 10466 10469 10472 10476 10479 10482 10485 10488 10491 10494 10497 10501 10504 10507